Regional Weather Roundup
Issued by NWS Albany, NY

Home | Current Version | Previous Version | Text Only | Print | Product List | Glossary On
Versions: 1 2 3 4 5 6 7 8 9 10 11 12 13 14 15 16 17 18 19 20 21 22 23 24 25 26 27
000
ASUS41 KALY 181910
RWRALY

NEW YORK STATE HOURLY WEATHER ROUNDUP
NATIONAL WEATHER SERVICE ALBANY NY
300 PM EDT FRI APR 18 2014

NOTE: "FAIR" INDICATES FEW OR NO CLOUDS BELOW 12,000 FEET WITH NO
SIGNIFICANT WEATHER AND/OR NO OBSTRUCTIONS TO VISIBILITY.

NYZ032-033-038>043-046>054-057>066-NYZ062>081-182000-
EAST


CITY           SKY/WX    TMP DP  RH WIND       PRES   REMARKS
ALBANY         CLOUDY    49  24  37 S10       30.37F
GLENS FALLS    PTSUNNY   53  22  29 S8        30.34F
POUGHKEEPSIE   CLOUDY    49  27  42 NW5       30.39F
NEWBURGH       PTSUNNY   46  28  49 S9        30.41F
MONTGOMERY     CLOUDY    48  26  42 MISG      30.37F
WHITE PLAINS   CLOUDY    43  28  55 S6        30.40F
ISLIP          CLOUDY    47  32  56 VRB7      30.41F
NEW YORK CITY  CLOUDY    44  29  55 NE7       30.42F
CENTRAL PARK   CLOUDY    47  28  47 CALM      30.44F
$$

NYZ005>009-017-018-044>046-055-056-182000-
CENTRAL


CITY           SKY/WX    TMP DP  RH WIND       PRES   REMARKS
FULTON         PTSUNNY   58  34  40 S9        30.24F
SYRACUSE       CLOUDY    58  31  35 CALM      30.25F
ROME           CLOUDY    54  30  40 SE10      30.29F
ELMIRA         CLOUDY    59  30  33 SW13      30.25F
BINGHAMTON     CLOUDY    48  30  49 SW12      30.28F
MONTICELLO     CLOUDY    45  23  42 SE9       30.36F
$$

NYZ026>034-041>043-182000-
NORTH


CITY           SKY/WX    TMP DP  RH WIND       PRES   REMARKS
WATERTOWN      CLOUDY    57  30  35 S9G17     30.23F
FORT DRUM      NOT AVBL
MASSENA        CLOUDY    52  29  41 E8        30.24F
SARANAC LAKE   CLOUDY    51  22  31 SW15G23   30.22F
PLATTSBURGH    CLOUDY    50  17  27 SE15G24   30.27F
$$

NYZ001>004-010>016-019>021-182000-
WEST


CITY           SKY/WX    TMP DP  RH WIND       PRES   REMARKS
NIAGARA FALLS  PTSUNNY   57  35  43 W12       30.23S
BUFFALO        PTSUNNY   58  32  37 W12       30.23S
DUNKIRK        MOSUNNY   53  31  42 W7G17     30.25F
JAMESTOWN      MOSUNNY   54  34  47 W12       30.23F
WELLSVILLE     MOSUNNY   61  26  26 SW10G18   30.22F
ROCHESTER      PTSUNNY   63  37  38 N10       30.20F
PENN YAN       MOSUNNY   60  33  36 VRB7      30.23F
$$

             KEY
       WCI = WIND CHILL INDEX
       VSB = VISIBILITY
       HX  = HEAT INDEX
$$



USA.gov is the U.S. government's official web portal to all federal, state and local government web resources and services.